231P/LINEAR-NEAT (2011)

Japanese version
Home page
Updated on February 10, 2013

---------------------------------------------------------------------

* Profile

Designation 231P/2009 X1
Recovery Date December 11, 2009
Magnitude 20.0 mag
Recoverer G. Hug (Scranton, KS)

* Pictures

* Orbital Elements

Epoch 2011 Apr. 29.0 TT = JDT 2455680.5
T 2011 May 16.69970 TT                                  MPC
q   3.0328671            (2000.0)            P               Q
n   0.12204056     Peri.   42.47204     -0.98564844     -0.06480182
a   4.0253154      Node   133.09931     +0.02326461     -0.96671930
e   0.2465517      Incl.   12.32644     +0.16720019     -0.24749649
P   8.08
From 243 observations 1950 Apr. 20-2011 Apr. 29, mean residual 0".6.

* Magnitudes Graph

        m1 = 4.3 + 5 log d + 25 log r

---------------------------------------------------------------------

The orbital elements are published on M.P.E.C. 2011-J28.
The magnitudes graphs are made with Comet for Windows.

---------------------------------------------------------------------

Copyright(C) Seiichi Yoshida (comet@aerith.net). All rights reserved.